Wind_Speed
57 57 54 54 51 50 49 45 40 30 24 22 18 10 3 6 7 9 14 17 23 30 34 39 43 49 55 58 57 64 70 74 80 77 66 59 53 45 38 32 29 27 26 26
60 57 55 54 51 52 50 42 33 21 17 17 10 3 7 6 5 10 13 17 24 29 33 38 47 51 56 56 60 68 74 76 81 77 67 58 54 51 41 33 27 22 20 19
60 58 53 52 51 49 43 33 20 16 13 13 6 6 9 5 6 9 12 18 23 27 32 39 47 53 56 57 63 71 76 77 82 73 63 56 52 47 43 36 27 21 16 12
57 53 49 49 44 38 31 20 13 10 10 7 4 11 9 5 3 6 11 18 22 27 34 41 48 54 58 57 65 74 78 77 80 71 61 55 51 45 38 32 26 18 12 7
47 41 38 34 29 25 16 7 6 6 6 4 7 12 8 4 2 6 11 15 20 26 35 42 48 54 58 58 66 75 80 75 79 72 63 56 49 43 38 30 22 17 11 5
29 25 21 16 13 8 6 5 4 3 6 7 10 12 9 4 3 7 10 14 19 26 34 42 48 54 58 59 65 73 78 75 77 74 64 56 49 43 39 32 24 19 14 9
10 5 5 3 5 9 7 4 3 6 8 9 11 10 7 2 1 6 10 14 19 26 34 40 46 52 58 58 63 69 77 75 76 77 66 59 50 46 40 35 30 25 19 16
9 10 14 15 14 10 7 5 7 8 7 9 12 8 7 3 3 7 8 13 20 28 32 38 44 51 56 58 59 66 75 77 76 78 70 63 55 52 46 40 37 33 26 22
19 25 23 18 12 8 8 8 7 7 7 8 12 8 7 5 5 6 9 13 19 24 30 36 41 48 53 56 57 63 72 75 78 76 77 67 61 58 52 48 45 38 31 29
26 23 21 17 15 13 10 9 8 5 4 6 9 8 8 8 8 8 9 12 17 21 28 33 38 44 50 55 58 60 67 73 77 77 78 74 66 61 59 56 50 44 38 36
23 20 21 19 17 13 11 9 6 4 1 1 4 6 8 11 9 10 10 12 15 19 23 28 34 40 46 52 57 57 61 68 72 77 76 79 72 64 63 62 57 51 46 45
21 21 20 21 21 18 13 8 4 3 0 1 2 5 8 10 12 12 11 12 13 16 19 23 29 35 41 47 53 55 55 61 66 72 75 73 78 70 63 65 62 56 52 50
15 14 14 15 16 17 18 17 11 6 5 5 5 4 6 8 10 15 15 14 13 13 16 18 22 29 36 42 47 52 51 53 59 64 69 72 71 76 71 62 61 59 55 52
11 11 10 9 8 8 10 12 15 16 13 9 8 8 7 7 9 11 13 15 14 13 14 14 17 21 27 35 40 46 49 47 51 56 61 66 70 69 71 71 61 56 54 52
25 16 9 7 7 6 6 5 5 8 11 14 14 12 11 11 11 12 12 14 15 14 14 14 13 14 19 27 33 39 45 46 43 47 52 57 61 65 67 65 68 63 56 51
31 27 23 17 12 11 10 9 8 7 7 8 10 11 13 12 13 15 16 15 15 13 14 14 12 12 12 17 25 31 36 41 41 39 43 47 52 57 59 63 60 60 64 57
24 26 25 23 22 18 15 15 15 14 12 12 13 12 10 11 13 13 14 16 15 16 16 15 15 11 9 11 17 23 27 33 37 37 36 38 42 46 51 53 56 59 54 53
34 29 26 22 20 20 20 19 18 19 20 19 19 19 17 15 15 13 13 14 14 15 16 16 15 13 11 8 9 14 18 23 28 33 32 31 33 36 40 44 46 48 52 54
40 34 31 26 21 19 21 22 22 23 23 24 26 28 27 23 22 21 16 15 16 14 14 15 15 15 16 12 9 7 9 13 18 23 28 27 25 28 31 35 39 41 39 40
42 37 35 33 30 27 24 23 24 25 26 27 26 28 31 33 31 28 26 22 19 18 16 14 15 16 16 15 13 11 7 4 8 13 18 22 22 21 22 25 29 33 34 34
43 42 41 38 37 34 34 35 32 32 30 28 30 29 30 34 35 36 36 33 28 24 21 19 17 17 18 17 17 16 13 8 2 4 8 12 15 18 17 17 20 22 26 28
45 49 45 45 43 41 42 42 42 38 37 36 37 37 37 36 36 38 39 38 38 34 29 26 23 21 20 21 21 20 19 16 11 7 5 5 6 9 12 12 12 15 17 20
54 56 53 49 51 51 50 49 48 48 47 46 44 43 42 42 41 40 40 40 41 40 39 34 31 28 25 23 24 25 23 23 20 17 13 10 8 6 7 8 9 10 11 13
60 59 58 53 56 56 57 57 55 54 53 51 50 49 47 47 46 43 43 42 41 43 43 42 40 36 33 30 27 28 29 28 27 27 24 20 16 15 13 11 11 10 10 11
62 64 65 60 59 61 62 61 58 57 57 55 53 52 49 45 44 44 44 42 42 42 44 46 45 46 41 39 36 33 32 33 33 32 32 31 27 23 22 20 19 17 15 14
68 70 71 69 66 66 63 64 62 59 57 56 52 49 46 43 39 37 40 41 42 44 45 46 48 48 49 49 45 43 39 38 38 38 37 37 36 34 32 30 28 26 25 23
75 78 75 71 69 68 65 63 63 58 55 53 49 46 43 40 37 34 33 36 38 41 45 47 49 51 52 52 55 52 50 47 44 43 43 43 42 41 40 39 37 35 34 33
Wind_Direction
297 299 299 301 305 304 302 305 310 319 316 317 318 320 128 112 74 36 13 4 10 5 357 351 348 351 355 353 353 350 345 344 344 343 343 339 338 335 329 321 312 300 288 275
298 294 294 298 298 295 296 303 306 308 306 308 307 287 142 122 70 32 5 6 9 3 356 354 354 353 357 356 356 352 351 350 349 348 348 345 344 341 341 336 328 316 298 276
289 289 292 291 288 290 296 298 303 290 300 300 280 159 141 136 62 27 358 11 3 0 354 357 355 357 0 359 359 357 355 355 354 353 350 351 348 345 343 343 343 333 315 285
284 285 283 281 284 287 289 294 277 287 296 284 221 148 149 124 62 8 358 8 357 356 357 359 358 359 5 2 2 1 360 359 358 358 357 357 354 352 352 348 346 348 336 309
284 281 278 280 278 279 285 256 258 282 272 226 173 152 157 166 78 355 2 2 353 2 2 1 359 1 7 6 6 4 3 2 3 3 4 4 1 359 2 3 1 6 10 8
280 277 277 268 264 266 199 192 209 229 189 188 169 170 182 196 357 340 354 354 353 8 2 2 2 2 10 9 9 6 4 6 8 8 10 10 9 8 10 14 20 27 38 59
288 259 226 187 136 146 151 154 187 167 175 182 171 174 192 210 311 335 353 344 351 5 5 2 4 5 12 12 12 9 6 11 12 14 15 17 17 20 21 25 32 41 48 62
81 102 107 110 116 127 132 142 145 160 173 176 170 182 195 247 302 312 331 340 354 358 4 2 6 8 12 17 13 13 9 15 17 18 21 22 26 30 29 35 41 45 54 68
85 96 94 94 96 96 100 105 128 147 164 160 170 202 213 253 270 307 337 338 357 356 359 4 7 11 10 19 17 16 13 19 21 22 25 27 32 36 39 43 47 48 58 73
85 85 83 80 74 76 87 100 127 143 155 152 181 208 226 255 292 288 324 331 347 355 357 1 5 13 9 20 21 20 17 20 25 25 29 31 35 41 46 48 53 58 66 76
69 72 71 69 67 73 85 101 122 123 186 112 188 209 245 251 271 299 311 329 336 346 350 1 3 10 13 17 23 23 22 23 27 29 31 34 38 43 49 52 54 61 70 81
66 61 56 56 57 53 54 51 68 85 17 324 298 243 251 272 274 287 305 320 330 341 347 2 3 7 16 16 23 26 27 26 28 33 34 37 40 44 50 55 56 60 68 79
52 65 71 61 49 43 41 40 34 21 356 334 319 300 278 276 291 283 287 305 323 339 346 355 0 8 12 19 20 26 29 31 30 33 35 39 43 44 48 53 59 60 65 73
39 39 36 42 48 49 43 26 20 20 17 350 328 307 291 283 285 284 289 293 303 318 332 344 354 7 13 19 21 24 29 33 35 34 38 38 44 48 49 52 56 63 67 71
31 21 0 354 1 6 355 348 5 6 1 2 0 345 321 302 288 285 285 292 302 307 312 326 342 355 15 19 21 25 27 31 38 39 39 42 42 47 53 55 56 60 66 71
30 21 15 2 334 317 314 314 315 310 310 320 331 338 345 333 308 294 293 291 296 299 308 310 319 343 359 20 20 24 29 29 34 42 44 45 47 47 52 56 61 61 63 66
26 28 21 7 359 350 327 303 298 297 296 294 293 295 302 317 318 314 300 295 294 292 293 298 303 312 340 8 26 21 28 31 32 38 47 50 52 50 52 57 60 66 69 71
20 17 14 11 4 353 344 334 320 300 291 292 292 289 287 284 286 295 306 306 296 285 286 289 287 289 302 323 6 22 23 30 34 36 42 53 56 60 58 59 62 63 66 72
12 14 13 13 2 349 343 339 329 317 308 301 292 285 283 281 281 278 274 285 295 297 281 274 278 275 277 287 293 336 18 26 34 38 41 45 58 63 69 67 68 69 71 72
2 2 360 0 0 353 340 327 325 320 311 303 299 297 294 288 278 273 274 265 265 275 284 276 261 263 268 265 265 273 294 3 36 45 44 47 48 64 69 77 77 77 78 79
357 356 352 349 345 342 342 342 330 323 314 305 296 294 297 291 287 282 273 268 263 256 258 268 269 254 251 254 252 252 260 269 237 73 66 56 56 51 65 79 86 90 88 89
351 356 350 347 342 335 331 329 326 322 316 310 302 293 288 288 283 279 276 274 266 260 255 251 256 262 253 245 245 244 243 246 244 215 165 118 88 81 69 70 94 101 108 108
347 346 342 341 338 332 329 325 319 315 312 307 301 296 293 288 282 275 269 269 267 265 257 252 247 247 251 250 241 239 239 238 237 235 220 203 178 167 136 117 99 108 123 126
342 343 340 334 331 327 327 322 317 311 308 305 302 298 293 288 284 279 272 267 265 265 263 256 249 246 242 243 242 237 237 236 235 235 232 229 220 202 192 186 169 156 140 145
336 337 336 330 324 323 320 316 312 308 306 306 304 299 295 291 285 281 277 271 265 260 260 259 255 246 244 241 238 239 235 232 234 235 234 231 227 225 218 205 201 195 187 182
332 333 332 328 324 320 316 313 311 309 307 306 304 299 296 293 289 283 274 270 266 260 255 252 251 251 246 240 239 236 234 234 231 230 232 232 230 228 227 225 217 209 207 205
330 331 329 326 321 318 316 314 311 310 308 306 303 300 298 297 293 286 274 267 262 257 253 249 248 248 247 244 239 235 235 232 232 230 228 229 230 229 228 227 226 226 220 215
Height
10553 10547 10542 10537 10534 10529 10525 10523 10520 10517 10512 10507 10502 10498 10496 10495 10494 10492 10490 10487 10481 10476 10469 10461 10450 10438 10424 10410 10394 10378 10358 10333 10307 10279 10257 10236 10219 10205 10193 10183 10174 10168 10164 10162
10539 10533 10530 10526 10523 10518 10515 10516 10514 10511 10507 10504 10501 10498 10497 10496 10495 10493 10491 10487 10482 10476 10469 10460 10449 10436 10422 10406 10390 10372 10350 10325 10298 10270 10247 10228 10210 10195 10182 10172 10163 10157 10153 10151
10523 10519 10517 10513 10510 10508 10508 10507 10507 10504 10503 10501 10499 10498 10497 10496 10495 10494 10491 10487 10482 10476 10469 10460 10449 10436 10420 10403 10387 10367 10345 10319 10293 10267 10245 10225 10207 10191 10176 10164 10156 10150 10145 10143
10510 10507 10504 10499 10500 10500 10500 10501 10500 10500 10499 10498 10497 10497 10497 10496 10496 10494 10491 10487 10482 10476 10468 10459 10448 10434 10417 10401 10385 10364 10342 10317 10294 10267 10244 10223 10204 10189 10175 10163 10153 10146 10142 10139
10495 10493 10490 10490 10492 10493 10495 10495 10496 10496 10496 10496 10496 10496 10497 10497 10496 10494 10491 10488 10483 10477 10469 10459 10447 10434 10418 10401 10384 10365 10343 10321 10295 10268 10244 10224 10206 10190 10177 10164 10153 10145 10141 10138
10482 10482 10483 10484 10486 10489 10490 10493 10494 10494 10494 10494 10495 10496 10498 10497 10496 10495 10492 10488 10483 10478 10469 10459 10447 10434 10420 10403 10386 10369 10349 10325 10299 10272 10249 10229 10210 10194 10180 10168 10157 10148 10143 10140
10476 10477 10479 10482 10485 10487 10490 10492 10492 10492 10493 10495 10496 10498 10498 10498 10497 10495 10492 10488 10484 10478 10470 10461 10450 10436 10423 10407 10391 10376 10356 10330 10305 10280 10257 10237 10218 10200 10186 10174 10163 10154 10148 10145
10476 10478 10481 10485 10488 10490 10491 10491 10492 10493 10494 10496 10498 10498 10499 10499 10497 10495 10492 10489 10484 10478 10471 10463 10453 10439 10428 10413 10398 10382 10362 10338 10314 10292 10267 10246 10227 10210 10196 10182 10172 10164 10158 10154
10484 10484 10488 10491 10491 10492 10492 10493 10494 10495 10495 10497 10498 10499 10499 10499 10497 10495 10492 10489 10485 10480 10473 10466 10456 10444 10432 10420 10405 10389 10371 10349 10326 10305 10281 10259 10240 10224 10210 10196 10185 10178 10172 10167
10495 10495 10494 10495 10494 10495 10495 10495 10496 10497 10497 10497 10499 10499 10499 10498 10497 10495 10493 10490 10486 10481 10476 10468 10460 10450 10438 10425 10412 10397 10380 10361 10341 10320 10299 10276 10258 10242 10227 10214 10204 10196 10190 10185
10504 10502 10501 10500 10499 10498 10497 10497 10497 10497 10498 10498 10498 10499 10498 10498 10497 10495 10493 10490 10486 10483 10478 10472 10464 10455 10444 10432 10419 10406 10391 10375 10357 10337 10318 10298 10280 10264 10249 10236 10227 10218 10212 10207
10510 10510 10509 10507 10505 10503 10502 10501 10499 10498 10498 10498 10498 10498 10498 10497 10496 10494 10492 10490 10487 10484 10480 10474 10468 10460 10450 10439 10428 10416 10403 10389 10374 10357 10341 10322 10304 10287 10274 10261 10252 10245 10239 10233
10517 10514 10512 10511 10510 10508 10507 10505 10503 10501 10500 10499 10498 10497 10496 10496 10495 10493 10491 10489 10487 10484 10481 10477 10471 10464 10455 10446 10437 10426 10415 10403 10390 10376 10362 10347 10329 10313 10299 10287 10278 10271 10266 10262
10519 10517 10516 10514 10513 10511 10509 10508 10506 10504 10501 10500 10499 10497 10495 10493 10492 10491 10489 10488 10486 10484 10481 10478 10474 10468 10461 10454 10445 10436 10426 10416 10405 10393 10381 10368 10355 10339 10326 10314 10304 10296 10292 10288
10522 10519 10517 10515 10514 10512 10511 10509 10507 10505 10503 10501 10499 10497 10495 10493 10491 10489 10488 10486 10485 10483 10481 10478 10475 10471 10466 10460 10453 10444 10435 10427 10419 10409 10398 10388 10377 10366 10352 10341 10331 10322 10316 10312
10525 10521 10519 10516 10513 10512 10510 10508 10507 10504 10502 10500 10497 10495 10494 10492 10490 10488 10486 10485 10483 10481 10479 10477 10474 10471 10469 10465 10459 10453 10445 10437 10430 10423 10415 10406 10397 10389 10378 10367 10357 10349 10341 10336
10528 10524 10520 10517 10514 10511 10508 10506 10505 10503 10501 10498 10495 10492 10491 10489 10486 10484 10483 10481 10481 10479 10478 10476 10474 10472 10469 10467 10463 10459 10453 10447 10440 10433 10427 10421 10414 10406 10399 10392 10383 10375 10368 10363
10529 10524 10520 10516 10513 10510 10507 10504 10501 10499 10497 10495 10492 10489 10487 10486 10483 10482 10480 10478 10476 10475 10474 10473 10472 10471 10469 10468 10465 10463 10459 10454 10449 10443 10437 10432 10427 10422 10416 10410 10403 10397 10391 10387
10529 10524 10520 10516 10512 10509 10506 10502 10499 10496 10493 10490 10487 10483 10481 10480 10478 10476 10476 10475 10473 10471 10470 10469 10468 10468 10467 10467 10465 10464 10463 10459 10455 10451 10446 10441 10438 10434 10429 10425 10420 10415 10411 10408
10527 10522 10518 10514 10510 10505 10502 10498 10494 10491 10487 10485 10483 10479 10475 10472 10472 10469 10468 10468 10467 10466 10465 10464 10464 10464 10463 10463 10463 10463 10462 10462 10459 10456 10453 10449 10446 10443 10440 10436 10433 10430 10427 10425
10523 10519 10514 10509 10505 10500 10496 10492 10488 10484 10480 10476 10474 10471 10468 10464 10462 10460 10459 10459 10459 10459 10458 10458 10458 10458 10458 10458 10459 10459 10460 10460 10460 10459 10457 10456 10453 10450 10447 10446 10443 10441 10439 10438
10517 10513 10507 10502 10497 10492 10487 10483 10478 10474 10470 10467 10463 10459 10456 10454 10451 10449 10447 10447 10448 10449 10450 10451 10451 10452 10453 10453 10453 10454 10455 10456 10457 10458 10458 10458 10457 10455 10453 10452 10450 10449 10448 10447
10511 10506 10500 10493 10487 10481 10477 10472 10466 10461 10456 10451 10448 10445 10441 10439 10437 10435 10435 10434 10434 10435 10438 10440 10441 10443 10444 10446 10447 10447 10448 10450 10452 10453 10454 10456 10457 10457 10457 10456 10454 10454 10453 10452
10503 10497 10492 10484 10477 10470 10464 10459 10453 10446 10440 10435 10430 10426 10422 10420 10419 10419 10419 10419 10421 10422 10423 10426 10429 10431 10433 10435 10437 10439 10441 10442 10444 10446 10448 10450 10452 10454 10455 10456 10456 10456 10455 10455
10491 10485 10480 10472 10464 10457 10448 10441 10434 10426 10420 10416 10411 10405 10402 10401 10400 10400 10399 10401 10403 10404 10406 10409 10412 10415 10419 10422 10424 10427 10430 10433 10435 10437 10439 10442 10444 10446 10449 10451 10453 10455 10455 10456
10477 10472 10465 10457 10447 10439 10431 10421 10413 10407 10401 10396 10391 10386 10383 10381 10380 10381 10379 10381 10383 10384 10387 10389 10392 10396 10400 10404 10408 10412 10416 10419 10422 10425 10428 10430 10433 10436 10439 10442 10445 10447 10450 10452
10462 10455 10447 10438 10429 10419 10410 10403 10394 10388 10381 10375 10371 10367 10365 10364 10363 10363 10362 10362 10363 10364 10365 10368 10372 10376 10380 10384 10389 10394 10398 10402 10406 10410 10414 10417 10420 10423 10427 10431 10434 10437 10440 10443